Regional Weather Roundup
Issued by NWS

Home | Current Version | Previous Version | Graphics & Text | Print | Product List | Glossary On
Versions: 1 2 3 4 5 6 7 8 9 10 11 12 13 14 15 16 17 18 19 20 21 22 23 24 25 26 27 28 29 30 31 32 33 34 35 36 37 38 39 40 41 42 43 44 45 46 47 48 49 50
000
ASUS43 KMKX 200900
RWRWI

WISCONSIN REGIONAL WEATHER ROUNDUP
NATIONAL WEATHER SERVICE MILWAUKEE/SULLIVAN WI
400 AM CDT SAT SEP 20 2014

NOTE: "FAIR" INDICATES FEW OR NO CLOUDS BELOW 12,000 FEET WITH NO
SIGNIFICANT WEATHER AND/OR OBSTRUCTIONS TO VISIBILITY.

WIZ001-002-006>008-014>016-023>028-201000-
NORTHWEST WISCONSIN

CITY           SKY/WX    TMP DP  RH WIND       PRES   REMARKS
SUPERIOR ARPT  MOCLDY    58  58 100 SW6       29.59R FOG
ASHLAND        MOCLDY    65  63  93 SW9       29.57F
HAYWARD        MOCLDY    64  64 100 SW6       29.62F FOG
SIREN          CLOUDY    67  65  91 SW7       29.65R
RICE LAKE      CLOUDY    67  65  92 SW9       29.67F FOG
LADYSMITH      CLOUDY    67  65  92 SW7       29.67F
EAU CLAIRE     NOT AVBL
MENOMONIE      CLOUDY    69  64  83 SW8       29.68S
NEW RICHMOND   CLOUDY    67  65  94 SW10      29.68S
OSCEOLA        CLOUDY    69  69 100 SW9       29.69S
$$

WIZ003>005-009-010-017-018-201000-
NORTH CENTRAL WISCONSIN

CITY           SKY/WX    TMP DP  RH WIND       PRES   REMARKS
WOODRUFF       CLOUDY    64  61  89 SW7       29.66F
RHINELANDER    CLOUDY    63  59  87 SW10      29.70S
EAGLE RIVER    CLOUDY    63  57  82 SW7       29.67S
LAND O LAKES   CLOUDY    64  59  85 S5        29.66F
PHILLIPS       CLOUDY    65  63  94 SW12      29.66R
TOMAHAWK       CLOUDY    64  60  87 S5        29.70S
MEDFORD        CLOUDY    64  61  92 S10G17    29.71R
MERRILL        CLOUDY    64  61  88 SW6       29.71S
$$

WIZ029-030-035-036-043>047-201000-
CENTRAL WISCONSIN

CITY           SKY/WX    TMP DP  RH WIND       PRES   REMARKS
WAUSAU         CLOUDY    64  60  87 SW14      29.71S
MOSINEE        CLOUDY    63  61  94 SW12      29.74S
MARSHFIELD     LGT RAIN  65  63  93 W9        29.73S FOG
STEVENS POINT  CLOUDY    62  61  96 SW7       29.74F
WAUPACA        RAIN      64  63  96 S16G22    29.73F
WAUTOMA        NOT AVBL
WISC RAPIDS    LGT RAIN  64  62  93 S10G23    29.71F
CAMP DOUGLAS   CLOUDY    66  66 100 S14G20    29.74F
$$

WIZ011>013-019>022-031-037>040-048>050-201000-
NORTHEAST WISCONSIN

CITY           SKY/WX    TMP DP  RH WIND       PRES   REMARKS
ANTIGO         CLOUDY    62  58  88 SW13G20   29.72F
STURGEON BAY   CLOUDY    63  55  77 SW10G18   29.74S
GREEN BAY      TSTM      61  60  97 S13       29.75F FOG
MANITOWOC      NOT AVBL
APPLETON       TSTM      61  59  94 SW17      29.79S
CLINTONVILLE   RAIN      63  61  94 SW10      29.73S
OSHKOSH        LGT RAIN  63  59  87 SW14G22   29.78F
$$

WIZ032>034-041-042-053>061-201000-
SOUTHWEST WISCONSIN

CITY           SKY/WX    TMP DP  RH WIND       PRES   REMARKS
LA CROSSE      CLOUDY    69  62  78 CALM      29.74R
SPARTA         LGT RAIN  64  63  94 S15G24    29.72F
VIROQUA        CLOUDY    64  64 100 SW8       29.82R
BOSCOBEL       CLOUDY    67  63  87 S7        29.84F
PRAIRIE DU CHI RAIN      64  62  95 SE5       29.84R
PLATTEVILLE    CLOUDY    64  62  94 SW7       29.90R
$$

WIZ056-057-062-063-064-067-068-201000-
SOUTH CENTRAL WISCONSIN

CITY           SKY/WX    TMP DP  RH WIND       PRES   REMARKS
BARABOO/DELLS  CLOUDY    63  60  90 SW9       29.84S
LONE ROCK      LGT RAIN  70  62  76 VRB5      29.85F
WATERTOWN      CLOUDY    64  58  78 SW15      29.84S
MADISON        LGT RAIN  66  60  81 SW7       29.87R
MIDDLETON      CLOUDY    68  59  74 W16G25    29.87R
MONROE         CLOUDY    61  55  82 SW17      29.85S
JANESVILLE     CLOUDY    64  54  68 SW8       29.87R
$$

WIZ051-052-058>065-066-070>072-201000-
SOUTHEAST WISCONSIN

CITY           SKY/WX    TMP DP  RH WIND       PRES   REMARKS
MILWAUKEE      CLOUDY    64  53  67 SW18G26   29.84R
WAUKESHA       CLOUDY    63  54  72 SW14G21   29.86S
MILWAUKEE/TIMM CLOUDY    64  52  63 SW15G24   29.85R
RACINE         CLOUDY    66  54  65 SW12      29.88R
BURLINGTON     CLOUDY    63  54  72 SW13G22   29.88R
KENOSHA        CLOUDY    64  54  69 SW12      29.89R
FOND DU LAC    LGT RAIN  63  57  81 SW12      29.81F
SHEBOYGAN      TSTM      66  57  72 SW23G31   29.80R
WEST BEND      CLOUDY    64  54  68 SW16G25   29.82S
JUNEAU         CLOUDY    64  56  75 W9        29.89R
$$

LSZ147-162-201000-
LAKE SUPERIOR

STATION/POSITION TIME  TEMP    WIND        PRES    WAVE
                       AIR SEA DIR/SP/G            HT/PER
                 (UTC) (F)     (DEG/KT/KT) (MB)    (FT/S)
W MID LAKE BUOY  0750   56 48  230/  6/  6 1001.7F   1
DEVILS ISLAND    0800   59     270/  9/ 10 1001.7F
PORT WING        0840   62     250/  2/  3 1001.7F
SAXON HARBOR     0800   68     200/  7/ 12 1002.0F
$$

LMZ867-665-643>646-201000-
LAKE MICHIGAN

STATION/POSITION TIME  TEMP    WIND        PRES    WAVE
                       AIR SEA DIR/SP/G            HT/PER
                 (UTC) (F)     (DEG/KT/KT) (MB)    (FT/S)
N MID LAKE BUOY  0750   61 58  210/ 23/ 27 1005.8F   8/ 8
NORTHPORT PIER   0800   60     170/  5/ 12 1006.1F
SISTER BAY       0742          180/ 11/ 13   N/A
KEWAUNEE LAKESHO 0800   61     190/  8/  9 1006.9F
SHEBOYGAN LAKESH 0800   62 55  200/ 16/ 17 1008.8F
PORT WASHINGTON  0800   66     230/  8/ 17 1010.2
ATWATER BUOY     0800   65     210/ 16/ 21 1011.7F
MILWAUKEE LAKESH 0800   66     230/ 14/ 18   N/A
S MID LAKE BUOY  0750   65 64  200/ 23/ 27 1011.1F   4/ 5
KENOSHA   LAKESH 0800   67     210/ 12/ 20 1010.8F
$$

TC  - TEMPERATURE IN CELSIUS
VSB - VISIBILITY IN STATUTE MILES
WCI - WIND CHILL INDEX
HX  - HEAT INDEX




USA.gov is the U.S. government's official web portal to all federal, state and local government web resources and services.